Domov               UVHVVR             MKGP            O straneh              
ZDRAVSTVENO VARSTVO RASTLIN
  MREŽA AGROMET. POSTAJ
 ► PROGNOSTIČNA OBVESTILA
AGROMETEOROLOŠKI PODATKI -
ARSO
OBVLADOVANJE TVEGANJ ZARADI
NEUGODNIH VREMENSKIH RAZMER
  ► NARAVNE NESREČE
  ► SUŠA/MOČA
  ► NAMAKANJE
  ► ŽLED (gozdarstvo)
KARTOGRAFSKI PRIKAZI
SPLETNE POVEZAVE
PROJEKTI IN PUBLIKACIJE

AGROMETEOROLOŠKA MREŽA: VREMENSKE POSTAJE IN FENOLOŠKA OPAZOVANJA

Pregled podatkov za lokacijo Slovenske Konjice, meteorološka postaja 37885

Pregled senzorjev na lokaciji

ID Ime Zadnja
vrednost
Datum
zadnje
spremembe
Tip
senzorja
4060 Temperatura 2 m (°C) 13,36 °C 12.12.2017 00:30 50YA
4061 Relativna vlaga 2 m (% RH) 61,73 % RH 12.12.2017 00:30 50YA
4062 Padavine (mm) 0 mm 12.12.2017 00:30 Rain-O-Matic
4063 Omočenost lista (U) 0 U 12.12.2017 00:30 A730WET

Pregled podatkov zadnjih 24 ur

Zap.
št.
Datum in čas Slovenske Konjice
Omočenost
lista
Padavine Relativna
vlaga
2
m
Temperatura
2
m
0 12.12.2017 00:30 0 0 61,73 13,36
1 12.12.2017 00:00 0 0 62,22 13,36
2 11.12.2017 23:30 0 0 59,9 13,72
3 11.12.2017 23:00 0 0 60,07 13,48
4 11.12.2017 22:30 0 0 60,76 13,14
5 11.12.2017 22:00 0 0 59,39 13,36
6 11.12.2017 21:30 0 0 59,39 13,28
7 11.12.2017 21:00 0 0 60,07 13,14
8 11.12.2017 20:30 0 0 60,1 13,16
9 11.12.2017 20:00 0 0 60,15 13,31
10 11.12.2017 19:30 0 0 61 13,24
11 11.12.2017 19:00 0 0 60,85 13,24
12 11.12.2017 18:30 0 0 61,2 13,16
13 11.12.2017 18:00 0 0 62,71 12,99
14 11.12.2017 17:30 0 0 63,64 12,8
15 11.12.2017 17:00 0 0 63,88 12,67
16 11.12.2017 16:30 0 0 66,32 12,06
17 11.12.2017 16:00 0 0 68,57 11,62
18 11.12.2017 15:30 0 0 73,55 10,79
19 11.12.2017 15:00 2 0 75,02 10,7
20 11.12.2017 14:30 0 0 74,87 10,57
21 11.12.2017 14:00 0 0 75,34 10,31
22 11.12.2017 13:30 0 0 75,73 10,18
23 11.12.2017 13:00 0 0 77,31 9,55
24 11.12.2017 12:30 0 0 76,26 9,62
25 11.12.2017 12:00 0 0 77,68 9,13
26 11.12.2017 11:30 0 0 79,95 8,45
27 11.12.2017 11:00 0 0 79,39 8,45
28 11.12.2017 10:30 0 0 79,41 8,5
29 11.12.2017 10:00 0 0 86,06 6,72
30 11.12.2017 09:30 0 0 89,87 5,42
31 11.12.2017 09:00 0 0 88,16 5,84
32 11.12.2017 08:30 0 0 87,62 6,25
33 11.12.2017 08:00 0 0 89,89 5,59
34 11.12.2017 07:30 0 0 89,08 5,62
35 11.12.2017 07:00 1 0 87,42 6,01
36 11.12.2017 06:30 0 0 88,6 5,64
37 11.12.2017 06:00 1 0 87,06 6,13
38 11.12.2017 05:30 3 0 87,91 5,89
39 11.12.2017 05:00 5 0,2 89,79 5,47
40 11.12.2017 04:30 3 0 87,18 5,91
41 11.12.2017 04:00 6 0,2 89,99 5,2
42 11.12.2017 03:30 5 0 90,48 4,52
43 11.12.2017 03:00 3 0 88,4 4,74
44 11.12.2017 02:30 3 0 88,52 4,47
45 11.12.2017 02:00 3 0,2 87,18 4,32
© 2011 Ministrstvo za kmetijstvo, gozdarstvo in prehrano. Vse pravice pridržane.